Wetbulb
67.90 65.27 64.05 63.77 56.04 53.83 51.85 54.17 58.47 58.10 58.60 59.65 60.15 58.68 57.85 58.70 56.79 54.85 69.22 71.73 71.26 68.55 72.65 74.39 74.73 74.23 74.08 73.83 73.15 72.76 72.49 71.69 70.59 69.76 69.27 68.79 68.23 67.89 67.89 67.69 68.21 68.32 68.30 68.73 68.90 68.93 68.62 68.04 67.76
63.57 61.82 63.11 62.46 52.83 50.78 54.18 58.76 58.03 59.04 60.26 61.37 60.94 59.83 58.48 57.27 60.85 62.21 66.09 71.67 71.00 68.71 72.79 72.72 74.86 74.41 74.33 73.98 73.61 73.02 72.87 72.04 71.28 70.39 69.87 69.44 69.20 68.96 68.84 68.77 69.12 69.43 69.46 69.51 69.53 70.39 69.94 69.49 68.95
62.03 63.58 61.42 57.64 55.74 53.58 55.16 58.55 58.86 60.24 59.97 57.29 58.67 59.64 59.04 58.38 62.38 64.24 70.63 72.40 70.81 69.20 72.02 72.87 74.96 74.51 74.46 74.26 73.71 73.36 73.24 72.82 71.89 70.89 70.30 70.00 70.03 70.51 70.46 69.30 69.39 70.11 70.19 69.95 69.68 70.56 71.03 70.34 69.72
62.20 63.16 62.44 55.55 55.47 58.59 59.27 59.26 60.30 60.36 58.91 58.74 58.39 57.03 60.19 62.94 63.07 66.68 70.79 71.87 70.64 69.43 70.57 73.03 74.80 74.58 74.51 74.51 74.01 73.76 73.51 73.09 72.69 71.59 71.33 70.80 71.16 71.37 71.28 70.22 70.06 70.50 70.74 70.35 70.25 70.34 70.57 70.03 70.38
64.97 63.10 54.97 54.00 54.81 58.02 60.95 62.86 62.70 59.73 58.67 58.38 58.62 57.15 58.76 62.85 65.31 66.93 70.51 70.82 69.82 69.71 71.31 72.05 74.80 74.70 74.68 74.76 74.36 74.26 74.08 73.80 73.53 72.64 71.74 71.64 71.95 71.88 71.63 70.93 71.01 70.93 70.55 70.69 70.52 70.63 71.07 70.94 69.44
60.58 60.49 52.66 50.27 52.83 56.01 58.59 60.03 59.85 59.23 58.90 58.82 58.19 58.10 60.19 65.16 64.78 66.79 69.46 70.80 69.97 69.53 71.84 73.01 74.78 75.00 74.52 74.46 74.51 74.23 74.04 73.82 73.45 73.16 72.67 72.40 72.52 72.05 71.21 70.87 70.60 70.47 70.27 70.25 70.40 70.19 69.91 70.17 69.50
58.42 56.67 52.32 51.95 52.55 54.20 56.10 59.30 58.33 58.37 58.06 58.13 60.09 57.49 60.66 62.17 65.45 66.39 69.15 70.78 70.77 69.73 70.85 73.20 74.57 75.34 74.92 74.45 74.10 74.04 73.81 73.64 73.34 73.11 73.17 72.91 72.35 71.06 70.06 68.86 68.31 68.45 68.65 69.09 69.39 69.37 69.32 69.11 68.66
58.78 57.24 53.56 53.83 52.76 52.87 56.79 57.71 58.70 58.22 57.70 61.23 60.89 57.12 58.35 63.58 65.51 65.85 68.45 69.24 70.31 70.06 69.82 71.27 73.61 74.06 73.46 73.63 74.42 74.11 73.88 73.78 73.49 73.47 72.99 72.53 70.84 69.00 67.19 67.20 67.52 67.03 67.14 67.50 67.81 68.39 68.48 68.98 68.81
61.35 54.10 51.79 53.25 53.71 54.80 58.30 56.89 59.41 60.51 59.23 60.21 60.87 60.40 62.33 63.59 64.83 66.07 66.98 67.54 68.35 68.97 70.58 70.80 71.91 73.38 72.82 71.94 73.78 74.03 73.55 73.57 73.23 72.27 72.23 70.87 68.94 69.22 69.10 67.82 65.14 65.44 65.85 66.24 66.92 67.25 67.42 67.64 68.03
57.91 54.02 53.81 57.08 57.81 56.77 58.16 58.12 58.71 57.90 58.41 58.48 59.86 62.21 63.31 63.48 63.64 63.71 64.39 65.09 67.04 68.01 69.05 70.56 72.44 72.67 72.55 70.52 72.84 73.78 72.53 71.97 70.98 70.41 70.48 70.08 69.74 69.82 68.26 67.07 64.95 65.60 65.79 66.56 67.50 67.39 67.52 67.28 67.70
57.59 54.00 57.33 57.69 58.74 59.23 57.92 57.84 59.56 57.49 56.41 58.24 58.82 60.76 62.27 62.78 63.25 63.82 64.43 64.91 65.12 68.16 68.94 69.92 72.12 73.62 72.87 71.39 72.02 72.21 70.89 71.00 70.78 70.99 70.28 70.19 69.64 69.44 68.61 68.31 68.05 68.54 67.57 67.26 67.62 68.06 67.92 67.81 66.78
54.67 57.48 58.00 58.55 58.87 58.44 57.31 59.04 57.55 58.17 58.50 60.38 61.11 61.73 61.73 61.86 62.81 63.66 64.38 64.80 65.27 66.67 68.43 69.91 70.94 73.00 73.69 71.63 71.48 71.00 70.49 70.45 69.92 69.66 70.22 69.50 68.79 68.88 68.70 67.71 67.67 67.88 67.00 66.86 67.44 67.09 67.25 67.63 67.74
54.61 56.48 58.01 58.38 58.47 58.28 58.63 57.15 57.21 57.95 59.78 61.21 61.13 61.60 61.75 62.11 62.63 63.91 65.27 65.89 66.30 66.31 68.37 69.84 71.01 72.31 72.89 73.25 71.66 70.82 70.02 69.22 69.24 68.41 69.68 69.73 68.76 68.85 68.58 68.11 67.40 67.44 67.84 66.50 66.77 66.97 66.74 66.63 66.64
54.85 55.19 55.97 57.50 57.55 58.06 56.76 56.85 57.60 58.12 59.21 59.89 60.44 60.23 60.62 60.94 61.98 63.42 64.16 64.74 66.29 66.92 68.40 70.06 70.66 72.94 73.12 73.11 72.45 70.79 70.49 69.44 68.56 68.02 69.24 69.80 69.27 68.82 68.47 68.31 68.30 68.65 69.20 67.90 66.49 66.61 66.16 65.86 66.29
55.08 52.42 53.95 55.00 56.27 55.79 57.15 53.98 54.44 58.14 58.84 58.80 58.78 59.33 60.05 60.76 61.97 62.58 64.03 65.12 66.43 67.34 68.78 70.50 71.03 72.22 73.17 72.59 71.77 70.33 69.34 68.80 67.67 68.53 70.11 69.92 69.98 69.44 69.33 70.07 70.05 69.32 70.68 69.07 67.07 66.47 66.68 65.49 65.68
52.06 53.07 49.13 54.27 55.56 56.28 55.79 49.83 55.31 57.92 57.26 56.99 57.84 57.96 58.77 59.97 60.80 62.87 64.19 65.66 67.23 68.32 68.25 69.74 69.52 71.29 72.65 72.68 71.42 69.36 68.57 67.88 67.99 68.77 69.18 69.78 69.95 69.63 70.03 69.54 68.95 69.54 69.21 67.56 65.75 66.48 64.94 64.81 64.59
50.14 46.15 48.83 51.23 55.63 53.98 52.98 50.68 55.30 57.60 57.15 56.48 57.37 57.65 57.88 59.35 60.65 63.04 63.89 65.24 66.97 68.75 68.72 68.59 69.02 70.22 72.05 72.81 70.93 70.27 69.65 68.15 68.43 68.66 68.77 69.38 69.67 69.63 70.08 69.34 69.13 68.92 65.98 66.03 67.01 65.73 65.45 64.36 63.94
45.61 46.57 47.94 48.58 52.94 53.10 50.93 51.31 54.40 56.53 56.45 55.81 56.23 56.86 57.39 58.61 59.58 61.64 63.81 65.89 67.02 68.24 68.89 67.81 68.62 70.93 71.85 71.06 70.12 68.09 67.88 68.10 68.56 68.34 68.80 69.40 69.63 69.28 68.99 68.61 67.84 65.49 65.34 66.40 66.27 65.37 65.71 64.51 64.20
48.78 48.42 48.28 50.80 52.99 51.42 50.72 51.01 52.95 55.60 55.43 54.59 55.74 56.24 57.25 58.75 61.07 63.12 64.82 65.43 66.12 67.00 67.08 67.25 68.08 71.70 70.84 68.62 66.54 66.03 65.59 66.86 67.34 68.15 69.52 69.59 69.35 68.98 68.81 67.72 66.99 67.20 65.08 63.62 64.95 65.39 64.52 64.08 64.93
47.97 47.05 47.33 50.44 52.22 51.56 50.35 49.60 52.46 53.81 54.25 55.25 55.86 56.08 57.16 59.37 59.81 62.49 64.79 65.15 65.11 65.80 66.65 67.57 68.64 69.94 69.86 67.85 68.28 66.83 66.62 66.66 67.98 69.06 69.24 69.62 69.03 68.60 68.08 67.63 66.86 65.84 63.89 64.62 64.96 64.32 64.25 64.19 64.76
46.47 45.92 46.61 46.27 49.91 51.27 49.09 46.94 49.29 52.48 54.13 54.53 55.74 57.46 59.04 58.87 58.82 62.04 63.86 64.17 65.10 65.35 66.53 67.64 69.11 69.03 68.81 69.00 67.84 68.04 68.05 68.12 66.47 66.92 67.19 68.50 68.09 67.98 67.53 66.89 66.27 65.57 65.84 65.48 65.13 64.62 63.13 61.72 63.84
43.62 47.85 46.58 46.52 45.77 42.20 49.14 40.88 48.27 50.97 51.76 53.70 55.14 56.59 57.66 58.69 59.85 62.28 63.42 63.52 64.61 65.35 66.86 68.27 68.27 67.79 68.06 68.32 67.41 67.12 64.36 63.95 66.20 66.65 67.96 67.28 66.94 66.56 66.43 66.62 66.11 66.09 65.72 65.29 64.63 64.11 64.07 63.78 62.35
45.53 47.37 47.35 46.83 45.43 45.07 44.99 42.53 46.06 50.40 49.63 52.16 55.03 56.53 58.43 58.75 61.09 61.82 63.66 63.77 64.74 65.77 66.69 67.63 67.71 67.74 67.98 68.28 68.12 66.24 65.85 65.59 66.67 66.59 65.75 66.47 67.30 66.27 65.54 66.18 65.58 65.53 65.14 65.21 65.01 63.98 64.13 64.42 63.67
48.91 46.55 47.08 46.95 45.35 39.48 44.01 43.71 44.35 47.86 50.63 52.71 55.10 55.37 57.18 59.07 61.27 62.62 63.60 64.11 64.44 65.89 66.52 67.04 67.15 67.12 67.85 67.53 67.67 67.46 67.07 65.60 65.46 65.44 64.64 64.78 65.51 65.51 65.28 65.07 65.38 65.80 65.96 65.17 64.64 64.75 64.50 65.38 65.33
47.34 45.23 39.93 38.30 38.67 38.12 45.94 43.58 45.61 51.38 53.03 53.65 53.68 56.02 59.35 60.85 62.05 61.85 62.25 62.98 63.84 64.62 65.53 66.06 66.12 66.00 67.02 66.85 67.10 67.54 67.70 66.34 65.23 64.70 65.45 63.80 64.32 63.72 64.45 65.37 65.48 66.10 66.17 65.86 65.65 65.42 65.28 65.01 64.83
45.27 45.39 40.64 34.45 36.52 40.46 46.01 41.72 46.10 52.25 54.35 55.47 56.16 55.92 58.30 60.70 61.99 62.27 62.80 63.20 63.54 64.35 65.04 64.97 65.61 65.63 66.25 66.19 67.07 67.56 67.55 65.68 65.38 65.31 65.17 64.70 64.31 63.68 65.72 65.57 65.65 65.63 65.76 66.25 66.55 66.06 65.41 65.65 65.28
45.55 43.77 48.24 43.12 44.03 41.40 44.18 47.05 51.31 53.99 54.59 55.02 55.80 57.31 58.66 61.23 61.92 62.21 62.90 63.63 63.76 64.53 64.80 65.35 65.29 65.19 65.36 66.28 67.15 67.20 67.06 65.71 65.41 65.69 65.75 64.59 64.99 64.24 65.06 65.17 65.27 66.19 65.93 65.89 65.97 65.47 65.79 65.77 64.87
48.19 49.25 42.43 43.58 36.75 35.50 40.41 42.14 43.60 49.64 52.12 54.03 55.14 56.90 59.80 61.09 61.57 62.17 62.75 63.51 64.48 64.98 65.32 65.92 65.50 64.62 65.35 66.78 66.82 66.69 66.80 66.35 66.04 65.42 64.69 64.66 64.88 64.36 64.48 64.43 65.92 66.13 66.18 65.65 65.99 66.46 65.55 65.57 65.00
45.63 45.31 46.22 46.34 43.52 38.46 37.71 40.68 51.08 51.08 53.19 55.18 56.76 59.31 60.32 60.85 61.33 61.85 62.66 63.84 64.49 65.13 65.32 65.22 64.34 64.44 65.16 66.01 66.82 66.64 66.33 66.09 65.82 65.40 64.82 64.54 64.87 64.80 63.95 63.66 64.55 65.44 65.39 66.11 66.29 64.99 64.33 64.63 64.70
47.61 46.16 46.84 41.41 40.35 42.43 41.04 41.75 53.65 54.65 56.02 56.63 57.02 59.44 60.98 61.54 61.48 62.06 62.65 63.39 63.90 64.36 64.41 63.80 64.08 64.07 64.74 65.81 66.16 66.30 66.40 66.45 65.81 65.28 65.21 64.83 64.19 64.61 63.75 64.03 64.13 64.36 65.47 65.81 65.11 63.92 62.87 63.03 63.77
MSLP
1014.54 1014.03 1013.19 1012.57 1011.20 1009.16 1006.72 1005.68 1005.14 1004.80 1004.55 1004.73 1004.99 1004.74 1004.12 1004.06 1003.90 1004.20 1005.53 1005.97 1006.45 1007.00 1008.16 1009.68 1010.19 1010.55 1010.93 1011.31 1011.74 1012.24 1012.57 1012.85 1013.16 1013.45 1013.74 1013.85 1014.01 1014.16 1014.35 1014.54 1014.62 1014.78 1014.81 1014.87 1014.87 1014.85 1014.90 1014.85 1014.75
1013.41 1013.56 1012.77 1010.55 1009.19 1006.59 1004.81 1004.81 1004.65 1004.52 1004.73 1004.74 1004.59 1004.52 1004.28 1003.90 1004.06 1004.47 1004.91 1006.02 1006.53 1007.26 1008.19 1009.03 1010.12 1010.45 1010.76 1011.21 1011.60 1012.08 1012.60 1012.85 1013.04 1013.35 1013.56 1013.82 1013.97 1014.04 1014.15 1014.23 1014.40 1014.48 1014.59 1014.66 1014.64 1014.67 1014.65 1014.71 1014.70
1013.42 1012.86 1010.70 1009.04 1007.31 1005.56 1003.92 1004.38 1004.12 1004.55 1004.66 1004.65 1004.29 1004.55 1004.12 1003.76 1004.50 1004.60 1005.44 1006.21 1006.61 1007.33 1008.03 1008.61 1009.59 1010.03 1010.69 1011.17 1011.54 1011.94 1012.45 1012.76 1013.03 1013.28 1013.50 1013.68 1013.79 1013.87 1014.05 1014.12 1014.17 1014.25 1014.30 1014.32 1014.36 1014.33 1014.42 1014.46 1014.54
1012.76 1011.93 1010.50 1008.37 1006.03 1005.36 1004.83 1004.10 1004.38 1004.24 1004.47 1004.73 1004.42 1003.91 1004.14 1004.42 1004.63 1005.08 1005.76 1006.29 1006.66 1007.36 1007.97 1008.44 1009.40 1010.00 1010.46 1011.01 1011.41 1011.84 1012.31 1012.54 1012.85 1013.15 1013.35 1013.54 1013.65 1013.74 1013.82 1013.91 1014.00 1014.06 1014.01 1013.95 1014.02 1014.07 1014.18 1014.30 1014.45
1011.85 1009.89 1008.36 1006.75 1005.35 1004.84 1004.95 1004.75 1004.35 1004.09 1004.06 1004.14 1004.31 1003.72 1003.77 1003.95 1005.02 1005.63 1005.92 1006.24 1006.43 1006.95 1007.55 1008.02 1009.38 1009.93 1010.29 1010.76 1011.18 1011.62 1012.01 1012.42 1012.66 1012.94 1013.14 1013.36 1013.48 1013.58 1013.65 1013.68 1013.71 1013.79 1013.80 1013.74 1013.76 1013.83 1013.93 1014.11 1014.17
1010.27 1009.12 1007.26 1005.52 1004.56 1004.43 1004.66 1004.50 1004.23 1003.86 1003.73 1003.77 1004.15 1003.97 1003.59 1004.41 1004.98 1005.19 1005.70 1006.09 1006.28 1006.72 1007.38 1007.73 1009.21 1009.78 1010.09 1010.49 1010.86 1011.40 1011.87 1012.32 1012.49 1012.72 1012.95 1013.15 1013.22 1013.31 1013.39 1013.45 1013.49 1013.54 1013.58 1013.56 1013.53 1013.63 1013.81 1013.91 1014.02
1009.38 1007.94 1006.51 1005.19 1004.30 1004.37 1004.35 1004.36 1004.00 1003.63 1003.47 1003.62 1004.03 1004.00 1003.38 1003.85 1004.89 1005.15 1005.51 1005.70 1006.03 1006.40 1007.19 1007.53 1008.49 1009.49 1010.02 1010.31 1010.60 1011.16 1011.63 1012.05 1012.31 1012.58 1012.82 1012.95 1013.07 1013.11 1013.22 1013.30 1013.34 1013.38 1013.42 1013.44 1013.44 1013.47 1013.63 1013.76 1013.90
1008.94 1007.75 1006.32 1005.24 1004.49 1003.90 1004.31 1004.53 1004.44 1004.01 1003.54 1004.19 1004.86 1003.71 1003.37 1004.06 1005.07 1005.05 1005.22 1005.28 1005.63 1006.00 1006.62 1007.05 1007.60 1008.50 1009.11 1009.65 1010.54 1011.00 1011.46 1011.91 1012.17 1012.45 1012.67 1012.78 1012.93 1012.97 1013.08 1013.09 1013.03 1013.21 1013.34 1013.35 1013.34 1013.32 1013.38 1013.46 1013.62
1009.21 1007.45 1005.62 1004.67 1004.13 1004.02 1003.98 1004.29 1004.52 1004.88 1004.55 1004.28 1004.32 1004.22 1004.11 1004.55 1004.84 1004.65 1004.71 1004.70 1004.94 1005.51 1006.02 1006.58 1007.01 1007.63 1008.35 1008.67 1009.73 1011.01 1011.47 1011.89 1012.16 1012.42 1012.57 1012.70 1012.27 1011.90 1012.05 1012.22 1012.75 1013.03 1013.15 1013.16 1013.12 1013.12 1013.15 1013.13 1013.17
1008.42 1006.19 1004.89 1004.38 1004.01 1003.79 1003.88 1004.04 1004.21 1004.64 1004.23 1003.80 1003.61 1003.31 1003.54 1003.91 1004.06 1004.10 1003.90 1003.64 1004.16 1004.81 1005.46 1006.08 1006.92 1007.29 1007.82 1008.09 1008.80 1010.00 1010.34 1010.93 1011.39 1011.56 1011.72 1012.07 1011.77 1011.81 1011.97 1012.19 1012.52 1012.74 1012.81 1012.82 1012.77 1012.84 1012.80 1012.91 1011.98
1007.08 1004.94 1004.33 1003.90 1003.98 1003.95 1004.17 1004.33 1004.12 1003.81 1003.79 1003.66 1003.30 1003.25 1003.24 1003.26 1003.29 1003.16 1003.29 1002.95 1002.93 1003.63 1004.77 1005.61 1006.49 1007.36 1007.55 1007.63 1008.29 1008.95 1009.57 1010.21 1010.79 1011.26 1011.43 1011.52 1011.52 1011.53 1011.50 1011.35 1011.37 1011.44 1011.81 1011.69 1011.51 1011.51 1011.47 1011.09 1011.41
1006.33 1004.88 1004.40 1003.81 1003.53 1003.80 1004.17 1004.25 1003.71 1003.46 1003.65 1003.73 1003.43 1003.25 1003.07 1002.80 1002.61 1002.46 1002.29 1002.18 1002.33 1002.79 1003.48 1004.91 1006.03 1006.94 1007.56 1007.37 1008.05 1008.27 1008.95 1009.81 1010.29 1010.61 1011.13 1011.30 1011.21 1011.23 1011.35 1010.99 1010.92 1011.19 1011.22 1011.19 1011.29 1010.96 1011.18 1011.43 1011.33
1004.82 1004.84 1004.21 1003.95 1004.25 1003.95 1004.15 1003.78 1003.50 1002.81 1003.42 1003.44 1003.28 1002.76 1002.44 1002.21 1002.01 1001.94 1001.93 1001.93 1001.94 1002.26 1002.66 1003.98 1005.45 1006.41 1007.17 1007.56 1007.65 1008.02 1008.65 1009.44 1009.74 1010.11 1010.44 1010.81 1010.69 1010.70 1010.81 1010.94 1010.97 1010.92 1010.76 1010.74 1010.95 1010.90 1011.07 1011.00 1010.99
1004.74 1004.32 1004.29 1004.23 1003.86 1003.86 1003.82 1003.26 1003.28 1002.38 1003.05 1002.61 1002.36 1002.02 1001.73 1001.54 1001.36 1001.19 1001.24 1001.33 1001.59 1001.70 1002.07 1003.24 1004.71 1005.92 1006.46 1007.16 1007.53 1007.93 1008.61 1008.91 1009.59 1009.58 1009.79 1010.39 1010.52 1010.41 1010.48 1010.78 1011.05 1011.18 1011.12 1010.92 1010.74 1011.06 1010.70 1010.53 1010.55
1004.60 1004.33 1003.97 1003.96 1003.76 1003.35 1003.80 1001.80 1001.93 1001.82 1002.32 1001.82 1001.31 1001.22 1001.11 1000.97 1000.76 1000.66 1000.65 1000.82 1000.92 1001.27 1001.97 1002.79 1004.05 1005.33 1006.00 1006.69 1007.49 1007.76 1008.10 1008.66 1008.95 1009.10 1009.68 1009.96 1010.23 1010.10 1010.41 1010.75 1010.77 1010.86 1010.86 1011.05 1011.11 1011.06 1011.06 1010.66 1010.46
1004.44 1003.90 1002.48 1002.95 1003.21 1003.52 1003.70 999.18 1000.81 1000.70 1000.85 1000.34 1000.52 1000.43 1000.40 1000.43 1000.20 1000.16 1000.06 1000.19 1000.49 1000.85 1001.29 1002.25 1003.57 1004.53 1005.63 1005.97 1006.87 1007.27 1007.48 1008.22 1008.39 1008.65 1008.97 1009.45 1009.79 1009.91 1010.08 1010.38 1010.40 1010.40 1010.54 1010.93 1011.08 1010.81 1010.44 1009.97 1009.91
1003.46 1001.65 1001.65 1001.74 1001.85 1001.88 1002.09 999.33 1000.53 1000.44 1000.14 1000.20 1000.13 999.99 999.72 999.67 999.43 999.46 999.63 999.65 999.87 1000.31 1001.00 1001.84 1003.03 1003.65 1004.83 1005.55 1006.26 1007.01 1007.52 1007.85 1008.02 1008.30 1008.55 1008.79 1009.15 1009.31 1009.60 1009.96 1009.99 1010.09 1010.57 1010.65 1010.54 1010.45 1010.20 1010.05 1009.74
1001.99 1001.66 1001.60 1000.55 1000.49 1000.78 1001.11 999.77 1000.18 999.94 999.61 999.76 999.65 999.35 999.11 998.79 998.49 998.39 998.69 998.87 999.37 999.99 1000.73 1001.78 1002.47 1003.20 1004.32 1005.25 1005.84 1006.64 1007.23 1007.58 1007.82 1008.00 1008.20 1008.45 1008.62 1008.85 1009.35 1009.53 1009.76 1010.14 1010.31 1010.23 1010.09 1010.11 1010.15 1009.66 1009.76
1002.28 1001.30 1000.39 1000.14 1000.40 1000.64 1000.53 999.84 999.27 999.18 999.02 999.36 998.97 998.51 998.16 997.84 997.57 997.71 997.97 998.60 999.13 1000.05 1000.91 1001.56 1002.07 1002.90 1003.61 1004.35 1005.03 1005.97 1006.58 1007.03 1007.36 1007.70 1008.01 1008.31 1008.31 1008.62 1009.00 1009.32 1009.54 1009.69 1009.83 1009.93 1009.80 1009.93 1009.85 1009.79 1010.07
1001.98 1001.20 1000.24 1000.44 1000.74 1000.87 1000.42 999.82 999.47 999.11 998.68 998.51 998.00 997.55 997.08 996.94 996.83 997.05 997.27 998.65 999.39 999.94 1000.82 1001.81 1002.30 1002.87 1003.39 1004.12 1004.79 1005.55 1006.09 1006.47 1006.85 1007.21 1007.81 1007.94 1008.16 1008.46 1008.71 1008.96 1008.97 1009.19 1009.21 1009.37 1009.44 1009.56 1009.53 1009.63 1009.86
1000.87 1000.76 1000.90 1001.11 1001.05 1000.94 1000.97 999.91 999.28 998.43 997.49 996.94 996.62 996.58 996.43 996.32 996.07 996.47 997.17 998.50 999.37 999.94 1000.81 1001.65 1002.65 1003.47 1003.76 1004.28 1005.35 1006.10 1006.51 1006.83 1006.94 1007.09 1007.37 1007.65 1007.99 1008.01 1008.36 1008.50 1008.73 1008.80 1009.06 1009.14 1009.21 1009.31 1009.27 1009.25 1009.44
999.60 1001.03 1001.60 1001.46 1001.54 1000.37 1000.76 998.30 997.67 997.16 996.31 996.08 995.90 995.62 995.22 995.23 995.39 995.88 997.03 998.45 999.28 999.90 1000.78 1001.72 1002.69 1003.55 1004.16 1004.75 1005.07 1005.54 1005.59 1005.86 1006.35 1006.98 1007.33 1007.61 1007.97 1007.91 1008.00 1008.29 1008.39 1008.82 1008.77 1008.80 1008.89 1008.86 1008.89 1009.06 1009.14
999.18 1000.98 1001.17 1001.27 1001.16 1001.05 1000.25 999.10 996.76 996.32 995.15 994.59 994.65 994.27 994.18 994.32 994.75 995.37 997.01 998.33 999.33 1000.08 1000.82 1001.88 1002.78 1003.58 1004.38 1004.71 1005.08 1005.51 1005.81 1006.22 1006.60 1007.03 1007.53 1007.62 1007.97 1008.04 1007.96 1008.21 1008.40 1008.40 1008.34 1008.54 1008.48 1008.62 1008.70 1008.48 1008.80
1000.04 1000.68 1000.81 1000.81 1000.59 999.53 998.98 998.34 995.93 994.60 993.80 993.60 993.24 993.25 993.26 993.91 995.14 996.09 997.31 998.56 999.49 1000.12 1001.03 1001.97 1002.87 1003.77 1004.49 1004.90 1005.32 1005.59 1006.10 1006.40 1006.52 1006.91 1006.98 1007.15 1008.09 1007.97 1008.02 1008.14 1008.25 1008.30 1008.38 1008.24 1008.39 1008.55 1008.60 1008.72 1008.76
999.21 999.79 999.36 999.47 998.88 997.90 997.73 996.83 994.79 993.85 993.68 993.25 992.83 993.06 993.51 994.76 995.64 996.55 997.55 998.49 999.39 1000.09 1000.99 1001.98 1002.87 1003.83 1004.50 1004.95 1005.39 1005.71 1006.18 1006.62 1006.88 1007.02 1006.85 1007.12 1007.81 1007.62 1008.11 1008.19 1008.28 1008.38 1008.32 1008.22 1008.20 1008.43 1008.38 1008.54 1008.63
996.90 997.59 996.68 996.70 996.81 996.36 996.15 995.37 993.95 993.74 992.99 992.40 992.35 992.75 993.40 994.85 995.68 996.47 997.48 998.29 999.31 1000.22 1001.14 1001.85 1002.87 1003.79 1004.46 1004.96 1005.32 1005.75 1006.30 1006.17 1006.55 1006.96 1006.82 1006.82 1007.44 1007.41 1008.15 1008.24 1008.20 1008.23 1008.14 1008.25 1008.49 1008.56 1008.46 1008.37 1008.43
995.98 995.69 996.16 995.88 996.30 996.24 994.78 994.45 993.87 993.04 992.08 992.03 991.97 992.54 993.47 994.92 995.86 996.77 997.74 998.59 999.41 1000.39 1001.21 1002.00 1002.86 1003.75 1004.43 1004.89 1005.29 1005.79 1006.34 1006.51 1006.78 1007.15 1007.31 1007.25 1007.43 1007.83 1008.12 1008.11 1008.13 1008.04 1008.12 1008.33 1008.41 1008.23 1008.39 1008.39 1008.45
994.35 996.03 995.78 995.56 995.55 995.21 994.70 994.26 993.24 992.38 991.40 991.36 991.61 992.26 993.82 995.11 996.08 997.07 997.91 998.85 999.84 1000.57 1001.46 1002.24 1003.01 1003.76 1004.35 1004.78 1005.21 1005.57 1006.23 1006.57 1006.87 1007.22 1007.23 1007.44 1007.75 1007.91 1008.12 1008.19 1008.10 1008.03 1008.12 1008.10 1008.26 1008.40 1008.39 1008.30 1008.27
993.56 993.99 994.87 995.26 995.30 994.70 994.40 993.47 992.81 992.20 991.61 991.17 991.40 992.42 993.91 994.98 996.04 997.21 998.13 999.17 999.99 1000.69 1001.59 1002.44 1003.07 1003.74 1004.32 1004.67 1005.03 1005.45 1005.95 1006.36 1006.75 1006.98 1007.32 1007.59 1007.88 1008.01 1007.94 1007.98 1008.05 1007.98 1007.99 1008.20 1008.31 1008.37 1008.34 1008.11 1008.44
993.35 993.33 994.41 994.25 994.82 995.01 994.53 993.58 992.22 992.13 991.90 992.04 991.62 992.86 993.99 994.90 995.94 997.11 998.20 999.14 999.85 1000.65 1001.53 1002.38 1003.03 1003.56 1004.08 1004.43 1004.87 1005.27 1005.74 1006.24 1006.76 1006.90 1007.19 1007.58 1007.70 1007.82 1007.72 1007.81 1007.88 1007.87 1007.88 1008.02 1008.19 1008.41 1008.75 1008.60 1008.55
Wind_Speed
12 12 7 6 8 7 10 4 7 6 6 3 5 8 6 10 11 8 4 7 7 18 20 22 21 21 19 18 17 16 15 14 13 12 11 10 9 9 8 7 7 6 6 6 6 6 6 6 5
12 11 6 3 9 10 9 9 9 1 5 8 10 12 12 14 5 5 5 11 11 17 18 21 21 20 19 18 17 16 15 14 13 12 11 10 10 10 10 9 9 10 9 9 8 9 7 7 7
12 8 7 6 9 11 5 8 4 2 4 2 4 3 6 4 1 4 6 14 13 16 18 19 23 21 19 18 16 15 14 13 13 13 12 11 11 11 11 11 12 12 12 12 11 11 10 8 8
10 7 6 10 13 11 10 4 3 5 4 2 3 7 3 3 2 1 4 14 13 16 18 17 22 20 19 18 17 16 15 15 14 14 13 13 12 12 12 13 13 14 15 15 14 13 10 8 10
7 6 11 13 17 13 9 13 12 10 5 6 2 4 5 2 1 2 5 13 14 17 16 18 20 20 19 19 18 17 16 15 14 14 14 14 13 14 13 15 15 16 17 18 17 15 10 9 9
9 7 12 14 18 11 11 12 13 12 10 7 8 5 8 8 3 1 6 12 13 15 15 14 19 19 19 19 18 17 15 14 14 13 13 13 14 13 14 13 13 14 14 15 15 13 12 10 7
14 11 16 17 17 14 11 7 12 12 7 10 5 11 6 1 12 3 5 11 15 14 15 14 16 19 18 18 17 16 16 15 14 12 12 13 13 8 7 8 9 11 12 13 12 12 13 10 10
11 11 19 16 16 15 4 6 5 7 9 5 5 8 5 11 7 5 6 10 14 13 15 16 15 18 18 17 15 15 15 14 12 12 12 11 9 8 9 7 12 9 10 11 12 13 13 12 11
15 12 15 20 20 16 12 11 5 3 11 13 9 14 13 13 8 8 8 10 13 14 16 16 16 16 16 16 15 13 13 12 10 11 10 8 9 9 8 2 3 6 8 9 10 11 12 13 13
16 16 24 21 22 19 22 14 14 10 16 19 19 18 11 11 12 12 14 12 13 19 18 17 15 15 15 12 12 13 13 11 10 10 9 9 8 7 6 7 5 8 9 10 9 6 8 9 9
20 28 24 24 25 22 20 22 22 19 18 21 20 22 20 18 16 15 16 16 15 17 17 18 15 14 15 13 10 8 7 7 7 10 8 9 6 6 6 5 5 7 10 7 10 9 9 8 4
30 29 24 26 26 23 21 24 24 23 22 24 22 22 22 21 18 16 17 16 15 14 19 19 18 16 15 11 10 10 8 7 7 8 10 8 6 7 7 6 6 5 6 6 6 6 4 7 9
34 27 26 23 23 25 23 26 27 28 21 26 22 21 19 18 20 18 16 16 16 15 16 19 18 17 15 13 11 10 9 8 8 7 9 8 7 7 7 7 7 7 7 6 7 6 6 6 8
26 26 30 26 23 22 23 26 28 27 16 27 23 23 20 20 19 17 15 16 14 16 16 17 19 16 16 14 13 10 9 8 8 7 7 8 8 7 8 6 6 7 6 8 6 7 7 6 5
24 27 28 21 24 26 20 31 31 26 21 26 22 20 18 17 17 16 15 16 15 13 13 18 18 19 18 17 14 11 10 8 7 7 7 8 9 9 10 8 7 8 7 10 8 8 8 7 7
23 28 28 24 20 17 18 35 26 18 21 19 17 17 16 18 19 18 16 15 15 14 14 16 16 19 18 16 13 10 9 8 7 6 6 8 10 12 10 8 8 8 6 5 6 8 9 7 7
26 26 32 30 26 26 27 39 29 26 15 16 16 18 17 18 19 19 19 17 16 13 13 17 19 20 19 16 13 10 10 8 6 6 6 7 9 11 9 7 8 7 4 5 8 8 9 7 7
25 26 27 30 22 21 26 30 27 23 24 20 21 19 20 19 22 21 18 15 14 11 12 16 16 18 19 14 11 9 8 7 6 6 6 7 8 9 7 7 6 4 5 7 8 8 7 7 4
25 25 30 24 23 24 24 28 28 27 18 23 23 19 21 20 22 17 14 10 9 9 12 17 17 17 15 14 13 10 9 7 6 5 6 8 8 7 8 6 6 7 6 6 5 7 9 6 6
27 29 29 24 23 20 19 25 26 23 24 24 26 22 23 19 19 15 8 7 8 10 12 13 16 19 15 11 8 8 6 5 3 3 4 6 6 7 6 7 7 7 7 9 8 9 6 6 7
29 29 26 25 21 19 22 25 27 27 30 28 23 21 19 20 20 15 6 7 8 10 12 14 15 17 13 13 9 7 6 3 5 5 5 3 6 6 6 6 6 6 5 6 8 7 8 7 7
31 24 23 22 20 19 18 21 22 21 24 21 23 22 21 20 16 11 6 8 9 12 14 17 18 17 14 13 10 8 4 4 2 2 1 3 5 4 4 5 5 5 5 5 4 6 6 6 7
24 15 20 20 19 20 22 17 20 23 24 23 22 23 21 18 11 9 9 11 12 14 16 17 18 16 14 11 10 8 4 4 3 2 3 4 3 3 4 5 5 5 5 4 3 4 6 6 3
22 14 18 15 14 17 21 21 20 19 21 21 14 11 9 8 4 7 11 13 14 16 18 18 17 14 14 11 10 6 6 3 2 2 4 4 4 4 5 5 5 4 4 4 5 5 5 4 4
24 21 11 12 13 13 15 13 20 17 20 20 15 5 7 4 9 13 15 15 17 20 19 17 17 16 13 12 10 8 6 5 4 4 2 3 5 5 6 5 4 3 4 4 4 5 4 5 4
29 25 12 16 12 13 7 10 11 11 15 13 12 12 3 5 10 14 16 18 20 20 19 18 16 15 13 11 10 7 6 4 3 2 3 3 6 5 6 5 4 3 3 3 3 3 4 5 4
32 28 22 14 3 7 6 9 14 20 18 15 8 5 5 9 13 16 18 18 19 18 17 17 16 14 12 11 9 7 6 4 5 6 5 5 5 6 6 4 3 2 2 2 4 5 7 5 3
26 23 21 13 14 15 7 10 10 13 11 7 10 6 10 13 15 17 17 18 17 17 16 15 14 13 12 11 9 8 6 7 7 6 5 6 6 5 6 4 2 1 2 3 4 4 4 4 4
19 23 19 14 11 8 4 4 11 14 11 3 5 9 15 16 17 17 17 17 17 16 15 14 12 13 12 10 9 7 6 7 7 6 7 7 7 6 6 5 4 2 3 3 3 1 3 5 4
26 18 23 13 16 13 8 7 5 5 7 4 3 11 16 17 18 19 18 18 17 16 16 14 12 12 11 10 9 8 6 6 6 7 7 7 7 7 5 5 4 3 2 2 3 6 3 3 5
Wind_Direction
158 175 178 197 235 232 240 219 277 221 210 176 263 237 244 317 301 340 110 187 171 164 164 172 175 175 173 171 173 177 177 178 179 181 188 193 197 202 209 227 237 243 244 246 248 243 231 232 247
163 169 215 232 253 228 191 207 199 37 336 300 265 238 250 262 310 285 234 169 170 160 169 179 178 181 178 176 177 180 185 185 186 192 198 208 217 223 230 231 239 246 250 249 247 250 241 234 231
169 212 241 230 240 253 254 171 123 338 333 311 243 273 315 279 185 317 57 161 164 167 177 184 177 183 180 182 180 182 190 192 195 201 212 220 230 237 240 247 248 250 255 260 261 254 246 245 239
179 196 234 246 236 241 264 164 233 301 158 251 340 266 224 284 291 19 128 169 170 175 183 175 178 184 182 185 185 187 193 197 202 208 216 226 237 246 250 251 255 255 260 260 263 262 259 261 262
218 242 248 238 249 256 254 267 285 278 262 247 280 304 280 170 339 276 174 181 184 181 186 180 180 188 184 187 189 191 196 201 204 212 220 229 236 243 253 258 257 257 255 257 259 258 262 258 264
211 267 239 241 246 229 258 272 265 259 263 235 253 287 281 64 331 273 212 200 202 188 187 188 181 191 187 189 191 192 195 201 205 213 224 234 242 249 258 263 264 264 269 272 268 266 260 271 267
241 222 257 264 273 273 283 281 258 266 246 247 343 286 290 36 7 327 213 214 212 196 191 190 188 195 192 190 190 191 193 200 205 213 224 235 254 251 256 263 268 272 273 273 271 269 264 260 264
239 252 257 261 263 273 304 258 292 246 272 5 293 265 266 0 346 303 259 231 215 206 202 201 198 193 199 193 192 192 192 198 203 210 220 233 233 237 241 257 239 252 274 273 270 266 262 262 260
242 236 247 249 253 262 231 258 128 310 274 276 269 278 306 310 300 279 270 247 227 218 208 207 198 198 200 198 182 188 194 199 199 212 217 213 241 233 238 204 305 270 267 266 264 260 259 262 257
225 229 244 254 271 273 282 242 282 273 276 277 277 267 261 257 258 276 274 253 235 228 214 206 209 201 197 203 184 198 194 203 212 221 226 225 243 257 299 305 258 258 259 261 271 263 269 248 248
231 246 254 248 257 259 271 274 273 278 275 275 296 302 298 301 291 277 267 277 268 223 221 215 193 203 201 195 188 189 193 202 206 225 226 235 255 245 243 263 238 236 207 255 218 211 228 240 266
244 253 251 263 260 257 258 271 277 271 272 282 288 293 292 288 287 281 269 272 274 253 218 207 202 196 205 194 191 189 190 196 211 211 219 235 234 232 250 265 263 249 257 271 249 251 260 273 253
244 249 264 248 263 270 274 267 273 275 282 282 282 282 285 284 282 277 273 272 270 254 232 207 201 196 196 209 189 197 196 191 213 218 211 236 250 251 250 249 255 259 270 242 245 272 256 261 249
246 252 256 263 257 260 263 268 267 266 269 278 278 282 283 285 283 276 272 266 261 254 234 207 202 196 190 197 193 184 191 186 214 221 224 217 249 250 257 241 252 253 247 271 270 259 256 253 273
251 253 258 250 253 254 264 268 256 265 261 265 272 278 281 282 282 276 269 270 266 250 236 203 199 194 191 194 188 188 177 206 209 220 213 234 242 246 253 261 256 250 249 246 243 252 244 247 236
248 240 248 234 228 237 230 262 264 280 275 265 267 277 282 282 281 282 274 270 263 250 219 201 191 194 191 185 184 190 178 199 209 214 229 230 245 252 260 259 255 250 254 243 229 240 250 238 235
233 240 240 243 243 241 232 257 258 259 259 264 266 277 282 282 282 273 274 269 261 239 212 183 194 190 186 180 176 183 176 205 206 221 240 249 251 254 254 255 255 234 229 228 231 233 238 234 247
228 227 242 259 242 236 244 251 260 264 264 279 273 277 279 277 279 281 275 266 255 227 187 187 188 184 178 167 166 176 173 195 210 228 247 263 255 259 255 253 242 214 221 232 230 227 234 247 250
249 254 249 245 243 249 249 257 269 275 282 271 269 270 272 279 281 281 275 270 222 189 185 189 181 171 169 167 169 174 189 193 212 233 244 254 258 265 248 242 228 223 225 235 234 228 226 230 219
233 240 248 255 262 270 272 270 273 277 273 271 273 265 269 268 279 275 276 227 202 171 180 180 174 165 165 159 162 177 189 192 223 232 246 262 265 252 245 236 225 204 221 222 226 227 228 220 208
225 236 245 259 269 253 252 268 269 262 259 259 260 259 259 261 276 276 240 203 175 162 164 163 158 156 154 142 138 145 144 173 206 201 230 227 243 242 234 227 226 203 231 230 229 234 231 228 191
231 225 246 253 257 259 255 276 274 280 278 269 266 263 263 265 261 251 215 177 170 154 154 150 149 152 143 159 156 163 184 211 84 249 194 233 230 222 226 215 191 205 225 226 229 210 221 183 193
231 232 236 241 254 266 259 261 273 259 262 258 258 258 254 254 246 247 172 158 151 145 144 147 147 150 147 145 150 162 184 148 172 192 208 257 184 193 169 175 189 217 226 193 209 170 211 191 182
219 216 226 236 245 249 250 252 270 271 266 271 269 257 241 188 171 143 135 142 142 142 144 144 145 142 148 150 144 150 145 166 210 201 236 213 141 178 160 168 192 207 215 183 182 184 205 198 205
199 195 199 215 217 247 249 243 247 284 286 276 272 258 128 145 153 145 145 144 145 146 144 144 145 146 151 151 156 155 149 152 173 228 204 185 152 197 145 170 192 191 205 161 185 190 204 216 224
192 187 207 218 231 244 198 245 250 266 277 284 267 245 250 148 137 139 143 143 144 144 147 144 146 149 155 158 161 152 149 162 170 126 115 154 156 144 152 186 188 175 167 147 168 212 220 206 216
185 211 216 245 166 267 255 239 264 259 261 255 261 212 174 150 142 138 141 144 144 145 145 146 148 151 158 162 157 156 159 153 95 113 151 158 129 130 175 193 173 186 179 165 175 199 200 193 204
196 196 200 214 226 241 248 255 263 270 315 212 237 209 153 143 140 141 143 145 142 143 143 147 149 153 161 160 165 156 155 149 130 140 144 154 138 167 173 186 194 215 166 196 185 209 187 195 166
190 195 208 205 242 202 264 245 254 249 284 318 165 147 150 147 143 146 146 144 144 143 147 149 152 159 162 168 164 151 157 148 147 147 155 159 169 180 184 171 186 195 175 166 187 63 214 172 154
203 192 195 202 192 237 274 263 242 339 310 320 219 143 148 144 146 148 148 150 147 150 152 153 157 163 166 167 166 158 154 164 150 151 151 162 180 190 172 160 171 180 158 142 108 116 84 107 135